Location: Costa Valle Imagna
(45.8000°N, 9.5000°E)
Time: 17:51:39
(UTC+00:00)

Cosmos 1190 Rocket - Pass Details

Date: 17 February 2020
Orbit: 756 x 780 km, 74.1° (Epoch: 01 April)

Event Time Altitude Azimuth Distance (km) Brightness Sun altitude
Rises 05:06:57 0° 201° (SSW) 3,225 7.1 -13.7°
Reaches altitude 10° 05:09:18 10° 202° (SSW) 2,306 6.3 -13.3°
Maximum altitude 05:14:33 85° 291° (WNW) 783 4.0 -12.4°
Drops below altitude 10° 05:19:53 10° 21° (NNE) 2,337 6.7 -11.5°
Sets 05:22:17 0° 22° (NNE) 3,271 7.5 -11.1°
